Regional Weather Roundup
Issued by NWS Grand Forks, ND

Home | Current Version | Previous Version | Text Only | Print | Product List | Glossary Off
Versions: 1 2 3 4 5 6 7 8 9 10 11 12 13 14 15 16 17 18 19 20 21 22 23 24 25 26 27 28 29 30 31 32 33 34 35 36 37 38 39 40 41 42 43 44 45 46 47 48 49 50

721
ASUS43 KFGF 102310
RWRFGF
PRAIRIE TO PINES  WEATHER ROUNDUP
NATIONAL WEATHER SERVICE EASTERN NORTH DAKOTA/GRAND FORKS ND
500 PM CST SUN DEC 10 2017

 **SATELLITE DATA USED TO AUGMENT SKY COVER AT AUTOMATED STATIONS**
 *****  WEATHER ACROSS EASTERN NORTH DAKOTA  *****

CITY           SKY/WX    TMP DP  RH WIND       PRES   REMARKS
GRAND FORKS    CLOUDY    25  21  85 S8        30.00F WCI  16
GRAND FRKS AFB CLOUDY    26  21  82 S8        29.98F WCI  17
GRAND FRKS NWS   N/A     25 N/A N/A S3          N/A
DEVILS LAKE    FAIR      33  28  81 SW7       29.92F
FARGO          CLOUDY    28  22  78 S3        30.03S
WAHPETON ARPT  CLOUDY    30  21  69 CALM      30.03F
$$

 ***** WEATHER ACROSS CENTRAL AND WESTERN NORTH DAKOTA  *****

CITY           SKY/WX    TMP DP  RH WIND       PRES   REMARKS
BISMARCK       MOCLDY    45  28  51 W8        30.01S
MINOT          CLOUDY    42  26  53 W16       29.95S
JAMESTOWN      CLOUDY    37  29  72 W7        29.96F
MINOT AFB      FAIR      41  26  55 W14       29.94S
GARRISON         N/A     42  23  46 W13       29.98S
WILLISTON      FAIR      44  22  41 W15       30.00F
DICKINSON      FAIR      39  22  50 W12       30.03R
HETTINGER      FAIR      43  16  33 W13       30.08R
$$

 *****  OTHER AIRPORT OBSERVATIONS IN OUR AREA  *****

CITY           SKY/WX    TMP DP  RH WIND       PRES   REMARKS
WALHALLA       FAIR      27  27 100 SE9       29.93F WCI  17
GRAFTON AIRPOR NOT AVBL
VALLEY CITY AR NOT AVBL
CANDO          MOCLDY    34  25  69 SW6       29.92F
CAVALIER APRT  CLOUDY    25  21  86 S8        29.95F WCI  16
GWINNER          N/A     36  28  75 CALM      30.00S
SHEYENNE NWR     N/A     30  24  79 SE2       29.95S
ROLLA          MOCLDY    34  25  69 SW8       29.88F
 ***** THE ABOVE OBSERVATIONS ARE NON NWS ARE NOT QUALITY
       CONTROLLED AND MAY MIS-REPORT RAIN FOR SNOW...
$$

  *****  WEATHER ACROSS NORTHERN MINNESOTA  *****

CITY           SKY/WX    TMP DP  RH WIND       PRES   REMARKS
FLAG ISLAND    FAIR      12   9  85 SE6       29.98S WCI   3
WARROAD        FAIR      16  12  86 S3        29.98F
ROSEAU         FAIR      16  12  86 S3        29.97F
HALLOCK        MOCLDY    23  19  86 S7        29.98F WCI  15
THF RVR FALLS  FAIR      16  14  92 S6        29.99F WCI   7
BAUDETTE       CLOUDY    15  11  83 E3        29.99F
WASKISH        CLOUDY    19  18  93 CALM      29.99F
CROOKSTON      CLOUDY    21  19  93 SW6       30.03S WCI  14
STEPHEN NDAWN    N/A     21  18  86 S5          N/A  WCI  15
GREENBUSH NDAW   N/A     19  16  86 S3          N/A
$$
  *****  WEATHER ACROSS CENTRAL AND WEST MINNESOTA  *****

CITY           SKY/WX    TMP DP  RH WIND       PRES   REMARKS
FOSSTON        FAIR      16  12  86 S6        30.00F WCI   7
BEMIDJI        FAIR      17  13  88 CALM      29.98F
PARK RAPIDS    FAIR      21  16  81 W3        29.98S
ELBOW LAKE     CLOUDY    28  22  79 NW3       30.03S HAZE
WADENA         FAIR      21  18  86 CALM      30.00S
DETROIT LAKES  FAIR      23  19  86 CALM      30.02S
MOORHEAD       CLOUDY    27  19  74 CALM      30.04S
FERGUS FALLS   CLOUDY    27  21  80 NW5       30.05S WCI  21
MORRIS MN      CLOUDY    30  21  69 NW3       30.03R
STAPLES        FAIR      21  16  79 W3        30.01S
$$
  *****  WEATHER ELSEWHERE ACROSS MINNESOTA  *****

CITY           SKY/WX    TMP DP  RH WIND       PRES   REMARKS
DULUTH         FAIR      16  10  77 NW3       30.00R
INTRNTL FALLS  FAIR       8   5  87 CALM      30.00F
ELY            FAIR      10   5  79 CALM      30.00R
CLOQUET        CLOUDY    21  12  68 NW3       30.00F
WHEATON        NOT AVBL
BRAINERD       FAIR      24  16  71 CALM      30.01S
HIBBING        CLOUDY    14  11  87 CALM      30.00S
ALEXANDRIA     CLOUDY    27  19  72 W3        30.01S
SAINT CLOUD    FAIR      25  19  78 CALM      30.03S
MINNEAPOLIS    FAIR      27  21  78 CALM      30.05R
$$

  *****  WEATHER ACROSS SOUTH DAKOTA  *****

CITY           SKY/WX    TMP DP  RH WIND       PRES   REMARKS
SIOUX FALLS    MOCLDY    38  29  70 W5        30.06S
BROOKINGS      FAIR      36  28  73 CALM      30.04S
WATERTOWN      FAIR      35  28  75 W3        30.01F
HURON          FAIR      37  29  72 NW9       30.05S
SISSETON         N/A     35  25  66 SE7       30.01S
ABERDEEN       FAIR      40  27  59 NW6       30.02F
MITCHELL       FAIR      40  29  64 NW5       30.07S
PIERRE         FAIR      51  24  34 N9        30.04F
MOBRIDGE       FAIR      42  29  59 NW9       30.00F
RAPID CITY     FAIR      56   4  12 NW12      30.13F
$$

  *****  SOME WEATHER IN NEARBY STATES *****

CITY           SKY/WX    TMP DP  RH WIND       PRES   REMARKS
GLASGOW MT     FAIR      40  15  36 W7        30.08F
GREAT FALLS MT FAIR      47   9  21 SW17      30.31R
CHEYENNE WY    FAIR      51   0  12 NW8       30.33F
SCOTTSBLUFF NE FAIR      55   4  12 W10       30.26F
OMAHA NE       FAIR      45  24  43 NW6       30.10S
DES MOINES IA  FAIR      41  25  53 NW6       30.07R
DAVENPORT IA   FAIR      29  20  69 N6        30.07R WCI  23
CHICAGO IL     MOCLDY    31  20  63 NW13      30.00R WCI  21
EAU CLAIRE WI  MOCLDY    25  17  72 N3        30.04R
LA CROSSE WI   CLOUDY    28  20  71 NW7       30.05R WCI  21
$$

  *****  SOME NATIONAL WEATHER *****

CITY           SKY/WX    TMP DP  RH WIND       PRES   REMARKS
LA GUARDIA NY  FAIR      38  21  50 W16G28    29.98R
RALEIGH NC     FAIR      36  25  64 CALM      30.14S
ATLANTA GA     FAIR      39  26  59 W5        30.22R
NEW ORLEANS LA FAIR      56  37  49 CALM      30.33F
OKLAHOMA CITY  FAIR      61  13  15 NW7       30.26S
ALBUQUERQUE NM FAIR      52   3  13 CALM      30.44S
SALT LAKE CITY FAIR      38  24  57 NW8       30.60R
LOS ANGELES CA CLOUDY    83  11   6 NW7       30.08S
BOISE ID       CLOUDY    27  20  75 CALM      30.67F
SEATTLE WA     FAIR      48  32  53 N7        30.34F
$$

*** WEATHER ACROSS MANITOBA...SASKATCHEWAN AND ONTARIO ***
                ***ONTARIO***

CITY           SKY/WX    TMP DP  RH WIND       PRES   REMARKS
GERALDTON      CLEAR     -8 -13  77 W3        29.97R
THUNDER BAY    PTCLDY     9   0  66 N3        30.05R
SIOUX LOOKOUT  PTCLDY   -11 -17  77 SE3       29.99F
TORONTO        FLURRIES  28  19  69 W15G23    29.83R WCI  17
BIG TROUT LK   CLOUDY    -4  -9  77 W10       29.90S WCI -21
PICKLE LAKE    CRYSTALS  -6 -11  77 SW8       29.94S WCI -21
DRYDEN         CLEAR      1  -2  85 S6        29.97F WCI -10
KENORA         NOT AVBL
$$
                *** MANITOBA***

CITY           SKY/WX    TMP DP  RH WIND       PRES   REMARKS
BRANDON        CLOUDY    28  25  86 W3        29.88F
DAUPHIN        LGT SNOW  25  21  86 W6        29.82F WCI  18
ISLAND LAKE    NOT AVBL
PILOT MOUND      N/A     30  27  86 SW7         N/A  WCI  23
THE PAS        LGT SNOW  19  14  79 S8        29.73F WCI   9
THOMPSON       FLURRIES   1  -4  78 S3        29.79F
WINNIPEG       MOCLDY    19  16  86 S8        29.93F WCI   9
LYNN LAKE      LGT SNOW  10   9  92 N3        29.75R VSB 3/4
CHURCHILL      FLURRIES   0  -4  85 W5        29.88F WCI -10
GILLAM         FLURRIES  -2  -8  78 SW5       29.86F WCI -12
$$
                ***SASKATCHEWAN***

CITY           SKY/WX    TMP DP  RH WIND       PRES   REMARKS
ESTEVAN        LGT RAIN  36  28  75 W10       29.95F
KINDERSLEY     PTCLDY    39  27  60 W17G25    30.05R
LLOYDMINSTER   CLOUDY    41  30  65 NW24G39   29.95R
PRINCE ALBERT  CLOUDY    37  30  75 W6        29.76F
REGINA         PTCLDY    34  27  75 W10       29.91F
YORKTON        CLOUDY    36  30  80 W10       29.80F
N. BATTLEFORD  MOCLDY    43  28  56 W25G36    29.88F
LA RONGE       LGT SNOW  32  30  93 NW8       29.74R VSB 3/4 WCI  25
SASKATOON      MOCLDY    39  28  65 W18       29.85F
SWIFT CURRENT  PTCLDY    39  19  45 W16G22    30.03S
$$
NOTE: THESE ARE AUTOMATED STATIONS WITH LIMITED QUALITY CONTROL
      "FAIR" INDICATES FEW OR NO CLOUDS BELOW 12,000 FEET WITH NO
      SIGNIFICANT WEATHER AND/OR OBSTRUCTIONS TO VISIBILITY.
      SKY/WX - SKY CONDITION AND SIGNIFICANT WEATHER.
      TMP - AIR TEMPERATURE.    DP   - DEWPOINT TEMPERATURE.
      RH  - RELATIVE HUMIDITY.  PRES - PRESSURE.
      HX  - HEAT INDEX.         WCI  - WIND CHILL INDEX.
$




USA.gov is the U.S. government's official web portal to all federal, state and local government web resources and services.